SL-12 DEB, 26813

Orbit data source: Space-Track

SL-12 DEB, 26813 is space debris in LEO originally from a launch on Tue, 10 Jan 1989 UTC launched from the Tyuratam Missile And Space Complex (TTMTR). Debris objects in space refer to the collection of defunct objects orbiting the Earth. Examples of debris include non-operational satellites, rocket bodies, and fragments generated from explosions, collisions, or faulty payload assembly.

Loading next visibility...
Identifier
26813, 1989-001P
Orbit
LEO
Last TLE update
6 hours ago
Origin
Manufacturer
Unknown
Mission
Spacecraft
Bus & Motor
Unknown
Mass
Unknown
Launch date (UTC)
1989-01-10 (36 years ago)
Launch vehicle
Unknown
Launch site
Tyuratam Missile And Space Complex (TTMTR)
Object type
Payload
Rocket body
Debris
Shape & HBR
Unknown
Radar Cross Section
Medium (>0.1 m² and <1 m²)

Expand to show TLE details & history

TLE from 6 hours ago
0 SL-12 DEB
1 26813U 89001P   25183.83685758  .00805849  00000-0  11747+0 0  9990
2 26813  65.4814 116.5157 0276245 336.0078  22.8344 14.50438609856438
Epoch: 2025-07-02T20:05Z
TLE epoch observation values (Epoch: 2025-07-02T20:05:04.494Z)
Latitude
-0.00005°
Longitude
-105.86528°
Altitude
546.256 km
Speed
7.685 km/s
True Right ascension
07h 46m 03s
True Declination
0° 00' 00"
Sunlit
Object was in daylight at epoch
Visualization orbit readout
Latitude
-29.91418°
Longitude
-121.7599°
Altitude
539.855 km
Speed
7.694 km/s
Apparent Right ascension
04h 45m 33s
Apparent Declination
-39° 18' 43"
Sunlit
Object is in daylight
Visualization observer readout
Local Sidereal Time
14:18:34
Azimuth
259.224° W
Elevation
-61.889°
Doppler factor
1
Orbital elements
Apogee altitude
918.878 km
Perigee altitude
526.563 km
Semi-major axis
7,100.858 km
Eccentricity
0.02762
Inclination
65.4814°
RAAN
116.5157°
Arg. of periapsis
336.0078°
True anomaly
Unknown
Mean anomaly
22.8344°
Eccentric anomaly
Unknown
Mean motion
3.62725 °/min
Orbital period
99.25 mins
BSTAR
0.11747
Loading maneuver chart data...
Loading SW <> Apogee altitude chart data...
Loading historical data...
Loading historical data...
Loading historical data...
Loading historical data...
Loading historical data...
Loading historical data...
Loading historical data...

SL-12 DEB Visibility forecast

Observer location: undefined°, undefined°

Span
Click to sort rows by Start time (UTC) header in descending order
Start Az.
Max El. time (UTC)
Max El. Az.
Max El.
End time (UTC)
End Az.
8 mins2025-07-03 04:51:32.089Z356.75° N2025-07-03 04:55:32.089Z43.386° NE20.963°2025-07-03 04:59:32.089Z89.815° E
10 mins2025-07-03 06:33:32.089Z324.191° NNW2025-07-03 06:38:32.089Z220.059° SW43.691°2025-07-03 06:43:32.089Z159.241° S
7 mins2025-07-03 21:02:32.089Z198.22° SSW2025-07-03 21:05:32.089Z83.945° E42.94°2025-07-03 21:09:32.089Z35.281° NE
4 mins2025-07-03 22:46:32.089Z299.748° NW2025-07-03 22:47:32.089Z314.55° NW15.735°2025-07-03 22:50:32.089Z354.455° N
|